Date String (YYYY-MM-DD hh:mm:ss) UTC,Instrument flags,Ambient pressure (hPa),Sample flow (lpm),Bypass flow (lpm),Sample temperature (°C),Ambient temperature (°C),ASC tube jacket temperature (°C),LED temperature (°C),Box temperature (°C),Sample RH (%),Span deviation,Mass concentration (μg/m³),Mass concentration (μg/m³),Mass concentration (μg/m³)
DateTimeUTC,F1_M11,P_M11,Q1_M11,Q2_M11,T1_M11,T2_M11,T3_M11,T4_M11,T5_M11,U1_M11,ZSPAN_M11,X0_M11,X2_M11,X1_M11
2022-07-25 10:00:00,,0828.9,4.98,0.00,32.4,28.1,00.0,40.4,32.9,34.5,-000.4,0014.44,0010.80,0009.79
2022-07-25 10:01:00,,0828.9,5.02,0.00,32.3,27.9,00.0,40.3,32.7,34.6,-000.2,0014.70,0010.95,0009.92
2022-07-25 10:02:00,,0828.9,5.00,0.00,32.1,28.0,00.0,40.4,32.6,34.8,-000.3,0014.99,0011.19,0010.09
2022-07-25 10:03:00,,0828.9,4.99,0.00,32.0,28.0,00.0,40.4,32.5,35.1,-000.3,0015.85,0011.31,0010.26
2022-07-25 10:04:00,,0828.9,5.00,0.00,32.1,28.2,00.0,40.3,32.6,35.0,-000.9,0015.95,0011.40,0010.37
2022-07-25 10:05:00,,0829.0,4.99,0.00,32.3,28.3,00.0,40.3,32.7,34.7,-000.8,0015.82,0011.40,0010.41
2022-07-25 10:06:00,,0829.0,5.00,0.00,32.4,28.4,00.0,40.3,32.7,34.5,-000.5,0016.35,0011.49,0010.50
2022-07-25 10:07:00,,0829.0,5.00,0.00,32.4,28.5,00.0,40.3,32.7,34.6,-000.5,0016.55,0011.54,0010.56
2022-07-25 10:08:00,,0829.0,4.99,0.00,32.3,28.6,00.0,40.3,32.7,34.6,-000.6,0016.65,0011.61,0010.62
2022-07-25 10:09:00,,0829.0,4.99,0.00,32.3,28.7,00.0,40.4,32.7,34.6,-000.1,0016.79,0011.70,0010.74
2022-07-25 10:10:00,,0829.0,5.00,0.00,32.3,28.8,00.0,40.4,32.7,34.7,0000.1,0016.99,0011.84,0010.87
2022-07-25 10:11:00,,0828.9,5.00,0.00,32.2,28.9,00.0,40.4,32.7,34.8,-000.2,0017.07,0011.94,0010.97
2022-07-25 10:12:00,,0828.9,5.00,0.00,32.2,29.0,00.0,40.4,32.7,34.9,-000.1,0017.09,0012.04,0011.08
2022-07-25 10:13:00,,0828.8,5.00,0.00,32.2,29.0,00.0,40.4,32.7,35.1,0000.0,0017.08,0012.08,0011.13
2022-07-25 10:14:00,,0828.9,5.00,0.00,32.3,29.1,00.0,40.4,32.9,34.9,0000.1,0016.26,0012.07,0011.10
2022-07-25 10:15:00,,0828.9,5.01,0.00,32.4,29.1,00.0,40.4,32.9,34.6,0000.4,0016.33,0012.05,0011.07
2022-07-25 10:16:00,,0828.9,5.00,0.00,32.5,29.2,00.0,40.5,32.9,34.5,0000.4,0016.77,0012.03,0011.06
2022-07-25 10:17:00,,0828.8,4.99,0.00,32.5,29.2,00.0,40.5,32.9,34.4,0000.4,0016.89,0012.04,0011.08
2022-07-25 10:18:00,,0828.8,5.00,0.00,32.5,29.3,00.0,40.5,32.9,34.5,0000.3,0017.36,0012.11,0011.12
2022-07-25 10:19:00,,0828.9,5.00,0.00,32.4,29.3,00.0,40.5,32.9,34.9,0000.4,0017.28,0012.00,0011.03
2022-07-25 10:20:00,,0828.9,5.00,0.00,32.4,29.3,00.0,40.6,33.0,34.9,0000.4,0017.12,0011.85,0010.86
2022-07-25 10:21:00,,0828.9,5.00,0.00,32.5,29.4,00.0,40.6,33.0,34.7,0000.5,0017.12,0011.76,0010.70
2022-07-25 10:22:00,,0828.9,5.01,0.00,32.5,29.4,00.0,40.6,33.0,34.8,0000.5,0016.97,0011.58,0010.53
2022-07-25 10:23:00,,0828.9,5.00,0.00,32.5,29.4,00.0,40.6,33.0,34.8,0000.3,0016.77,0011.36,0010.29
2022-07-25 10:24:00,,0828.9,5.00,0.00,32.4,29.5,00.0,40.6,33.0,34.8,0000.5,0016.60,0011.16,0010.11
2022-07-25 10:25:00,,0828.9,5.01,0.00,32.4,29.5,00.0,40.6,33.0,34.9,0001.0,0016.55,0011.09,0010.05
2022-07-25 10:26:00,,0829.0,5.00,0.00,32.4,29.0,00.0,40.6,33.0,35.0,0001.0,0016.42,0011.04,0009.99
2022-07-25 10:27:00,,0829.0,5.00,0.00,32.5,28.3,00.0,40.5,33.0,34.7,0001.2,0015.99,0011.00,0009.94
2022-07-25 10:28:00,,0829.2,4.99,0.00,32.4,28.0,00.0,40.5,32.8,34.8,0001.3,0015.33,0010.88,0009.81
2022-07-25 10:29:00,,0828.7,5.00,0.00,32.3,28.0,00.0,40.5,32.7,35.2,0001.4,0014.60,0010.70,0009.64
2022-07-25 10:30:00,,0829.0,4.99,0.00,32.4,28.0,00.0,40.5,32.7,34.9,0001.2,0014.56,0010.63,0009.55
2022-07-25 10:31:00,,0829.3,5.00,0.00,32.6,28.2,00.0,40.4,32.8,34.6,0001.1,0014.43,0010.55,0009.48
2022-07-25 10:32:00,,0829.3,5.00,0.00,32.6,28.3,00.0,40.5,32.8,34.5,0000.9,0014.18,0010.41,0009.39
2022-07-25 10:33:00,,0829.3,5.01,0.00,32.6,28.4,00.0,40.5,32.7,34.5,0000.7,0014.16,0010.36,0009.34
2022-07-25 10:34:00,,0829.2,4.99,0.00,32.5,28.5,00.0,40.5,32.7,34.5,0000.9,0014.39,0010.35,0009.35
2022-07-25 10:35:00,,0829.2,5.01,0.00,32.5,28.7,00.0,40.5,32.7,34.5,0000.6,0014.42,0010.38,0009.39
2022-07-25 10:36:00,,0829.2,4.99,0.00,32.5,28.8,00.0,40.5,32.7,34.6,0000.3,0014.48,0010.42,0009.45
2022-07-25 10:37:00,,0829.0,5.01,0.00,32.4,28.8,00.0,40.6,32.7,34.7,0000.0,0014.51,0010.52,0009.57
2022-07-25 10:38:00,,0828.7,4.99,0.00,32.3,28.9,00.0,40.6,32.7,34.9,-000.5,0015.06,0010.61,0009.68
2022-07-25 10:39:00,,0828.7,4.99,0.00,32.3,29.0,00.0,40.6,32.8,34.9,-000.8,0015.33,0010.69,0009.78
2022-07-25 10:40:00,,0828.7,5.02,0.00,32.2,29.1,00.0,40.6,32.8,34.9,-001.3,0015.53,0010.83,0009.91
2022-07-25 10:41:00,,0828.8,5.00,0.00,32.2,29.1,00.0,40.6,32.8,35.1,-001.3,0015.64,0011.00,0010.08
2022-07-25 10:42:00,,0828.7,4.99,0.00,32.3,29.2,00.0,40.6,32.9,34.8,-001.4,0015.68,0011.09,0010.17
2022-07-25 10:43:00,,0828.7,4.99,0.00,32.4,29.2,00.0,40.6,33.0,34.6,-001.4,0015.81,0011.15,0010.20
2022-07-25 10:44:00,,0828.9,5.00,0.00,32.4,29.3,00.0,40.6,33.0,34.7,-000.9,0015.85,0011.12,0010.15
2022-07-25 10:45:00,,0829.2,5.00,0.00,32.4,29.3,00.0,40.6,33.0,34.9,-000.6,0015.49,0011.05,0010.10
2022-07-25 10:46:00,,0829.2,5.00,0.00,32.4,29.3,00.0,40.6,33.0,34.9,-000.4,0015.41,0010.94,0009.98
2022-07-25 10:47:00,,0829.2,5.01,0.00,32.4,29.4,00.0,40.6,33.0,35.0,-000.4,0015.16,0010.76,0009.79
2022-07-25 10:48:00,,0828.8,5.00,0.00,32.4,29.4,00.0,40.6,33.0,34.9,-000.4,0015.10,0010.57,0009.59
2022-07-25 10:49:00,,0829.0,5.01,0.00,32.3,29.4,00.0,40.6,33.0,35.0,-000.2,0014.71,0010.39,0009.42
2022-07-25 10:50:00,,0828.8,4.99,0.00,32.4,29.4,00.0,40.6,33.1,34.9,-000.2,0014.57,0010.24,0009.26
2022-07-25 10:51:00,,0828.7,5.01,0.00,32.5,29.3,00.0,40.6,33.1,34.7,0000.3,0014.46,0010.04,0009.07
2022-07-25 10:52:00,,0829.0,5.01,0.00,32.5,28.6,00.0,40.5,33.0,34.6,0000.2,0014.39,0009.88,0008.90
2022-07-25 10:53:00,,0829.1,5.00,0.00,32.5,28.1,00.0,40.5,32.9,34.7,0000.1,0014.42,0009.84,0008.86
2022-07-25 10:54:00,,0828.8,4.98,0.00,32.4,28.0,00.0,40.5,32.7,35.0,0000.1,0014.28,0009.79,0008.85
2022-07-25 10:55:00,,0828.5,5.02,0.00,32.3,28.0,00.0,40.5,32.7,35.2,-000.3,0014.13,0009.78,0008.87
2022-07-25 10:56:00,,0828.6,4.99,0.00,32.4,28.1,00.0,40.4,32.8,34.9,-000.6,0014.20,0009.79,0008.85
2022-07-25 10:57:00,,0828.5,5.01,0.00,32.6,28.2,00.0,40.4,32.8,34.6,-000.6,0014.14,0009.75,0008.83
2022-07-25 10:58:00,,0828.5,5.01,0.00,32.6,28.3,00.0,40.4,32.8,34.6,-000.4,0014.22,0009.73,0008.81
2022-07-25 10:59:00,,0828.4,4.98,0.00,32.6,28.5,00.0,40.5,32.8,34.5,-000.4,0014.23,0009.80,0008.84
